Weather History for Sedalia, MO

Change the Weather History Date:

Thursday, December 6, 2012

  Actual Average Record
Temperature  
Mean Temperature 47 °F 38 °F  
Max Temperature 56 °F 46 °F 70 °F (1980)
Min Temperature 37 °F 29 °F -2 °F (1950)
Degree Days  
Heating Degree Days 18 27  
Month to date heating degree days 61 158  
Since 1 July heating degree days 938 1003  
Cooling Degree Days 0 0  
Month to date cooling degree days 0 0  
Year to date cooling degree days 2111 1490  
Moisture  
Dew Point 39 °F    
Average Humidity 72    
Maximum Humidity 82    
Minimum Humidity 61    
Precipitation  
Precipitation 0.00 in 0.07 in 0.84 in (1974)
Month to date precipitation 0.09 0.45  
Year to date precipitation 29.51 39.24  
Sea Level Pressure  
Sea Level Pressure 29.96 in    
Wind  
Wind Speed 6 mph (SE)    
Max Wind Speed 12 mph    
Max Gust Speed 16 mph    
Visibility 10 miles    
Events      
T = Trace of Precipitation, MM = Missing Value Source: NWS Daily Summary

Daily Weather History Graph

Daily Weather History Graph

Search for Another Location

Airport:

Trip Planner

Search our weather history database for the weather conditions in past years. The results will help you decide how hot, cold, wet, or windy it might be!

Date:

Astronomy

Dec. 06, 2012 Rise Set
Actual Time 7:16 AM CST 4:51 PM CST
Civil Twilight 6:47 AM CST 5:20 PM CST
Nautical Twilight 6:14 AM CST 5:53 PM CST
Astronomical Twilight 5:41 AM CST 6:25 PM CST
Moon No Moon Rise 12:13 PM CST (12/6)
Length of Visible Light 10h 33m
Length of Day
9h 34m
Waning Gibbous, 49% of the Moon is Illuminated
Dec 6
Waning Gibbous
Dec 13
New
Dec 19
First Quarter
Dec 28
Full
Jan 4
Last Quarter

Hourly Weather History & Observations

Time (CST) Temp. Windchill Dew Point Humidity Pressure Visibility Wind Dir Wind Speed Gust Speed Precip Events Conditions
12:53 AM 37.9 °F 33.5 °F 30.0 °F 73% 30.08 in 10.0 mi SSE 5.8 mph - N/A   Clear
1:53 AM 37.9 °F 31.5 °F 30.9 °F 76% 30.06 in 10.0 mi SSE 9.2 mph - N/A   Clear
2:53 AM 39.9 °F 34.5 °F 30.9 °F 70% 30.04 in 10.0 mi SSE 8.1 mph - N/A   Clear
3:53 AM 44.1 °F 38.6 °F 32.0 °F 63% 30.03 in 10.0 mi SSE 10.4 mph - N/A   Clear
4:53 AM 44.1 °F 38.6 °F 33.1 °F 65% 30.01 in 10.0 mi SSE 10.4 mph - N/A   Clear
5:53 AM 42.1 °F 37.1 °F 33.1 °F 70% 30.02 in 10.0 mi South 8.1 mph - N/A   Clear
6:53 AM 43.0 °F 38.8 °F 34.0 °F 71% 30.01 in 10.0 mi SSE 6.9 mph - N/A   Clear
7:53 AM 43.0 °F 38.8 °F 34.0 °F 71% 30.01 in 10.0 mi SSE 6.9 mph - N/A   Clear
8:53 AM 46.0 °F 41.4 °F 35.1 °F 66% 30.01 in 10.0 mi SSE 9.2 mph - N/A   Clear
9:53 AM 48.0 °F - 37.0 °F 66% 30.00 in 10.0 mi SSE 8.1 mph - N/A   Clear
10:53 AM 54.0 °F - 41.0 °F 62% 29.99 in 10.0 mi South 10.4 mph - N/A   Clear
11:53 AM 55.0 °F - 42.1 °F 62% 29.96 in 10.0 mi SSW 8.1 mph - N/A   Clear
12:53 PM 54.0 °F - 43.0 °F 66% 29.94 in 10.0 mi South 5.8 mph - N/A   Mostly Cloudy
1:53 PM 55.0 °F - 44.1 °F 67% 29.91 in 10.0 mi South 5.8 mph - N/A   Partly Cloudy
2:53 PM 55.9 °F - 44.1 °F 64% 29.89 in 10.0 mi SE 5.8 mph - N/A   Partly Cloudy
3:53 PM 55.0 °F - 44.1 °F 67% 29.89 in 10.0 mi ENE 3.5 mph - N/A   Clear
4:53 PM 52.0 °F - 43.0 °F 71% 29.90 in 10.0 mi ENE 5.8 mph - N/A   Clear
5:53 PM 51.1 °F - 42.1 °F 71% 29.91 in 10.0 mi East 4.6 mph - N/A   Clear
6:53 PM 48.9 °F - 43.0 °F 80% 29.91 in 10.0 mi East 6.9 mph - N/A   Clear
7:53 PM 48.9 °F - 42.1 °F 77% 29.92 in 10.0 mi ENE 4.6 mph - N/A   Clear
8:53 PM 48.0 °F - 42.1 °F 80% 29.92 in 10.0 mi Calm Calm - N/A   Clear
9:53 PM 46.9 °F - 41.0 °F 80% 29.91 in 10.0 mi East 3.5 mph - N/A   Clear
10:53 PM 48.0 °F - 42.1 °F 80% 29.90 in 10.0 mi Calm Calm - N/A   Overcast
11:53 PM 48.9 °F - 42.1 °F 77% 29.89 in 10.0 mi NE 3.5 mph - N/A   Overcast